******** Week 366 almanac for PRN-1 ******** ID: 1 Health: 0 Eccentricity: 0.00169467926 Time of Applicability(s): 319488 Orbital Inclination(rad): 0.957661809 Rate of Right Ascen(r/s): -7.988904198e-09 SQRT(A) (m 1/2): 5153.568848 Right Ascen at Week(rad): 2.384090022 Argument of Perigee(rad): 0.158814574 Mean Anom(rad): 2.053265119 Af0(s): 0.0002343927124 Af1(s/s): -7.275958e-12 week: 366 ******** Week 366 almanac for PRN-2 ******** ID: 2 Health: 0 Eccentricity: 0.01682472229 Time of Applicability(s): 319488 Orbital Inclination(rad): 0.9627191519 Rate of Right Ascen(r/s): -8.034620388e-09 SQRT(A) (m 1/2): 5153.716797 Right Ascen at Week(rad): 2.221727368 Argument of Perigee(rad): -0.7826316803 Mean Anom(rad): -2.719330737 Af0(s): 6.255496826e-05 Af1(s/s): 7.275958e-12 week: 366 ******** Week 366 almanac for PRN-3 ******** ID: 3 Health: 0 Eccentricity: 0.006695270538 Time of Applicability(s): 319488 Orbital Inclination(rad): 0.9941777423 Rate of Right Ascen(r/s): -7.474597061e-09 SQRT(A) (m 1/2): 5153.565918 Right Ascen at Week(rad): -2.910888835 Argument of Perigee(rad): 1.209059989 Mean Anom(rad): -0.01229057166 Af0(s): 0.0003971863647 Af1(s/s): -1.455192e-11 week: 366 ******** Week 366 almanac for PRN-4 ******** ID: 4 Health: 0 Eccentricity: 0.003725528717 Time of Applicability(s): 319488 Orbital Inclination(rad): 0.9707246142 Rate of Right Ascen(r/s): -8.148910863e-09 SQRT(A) (m 1/2): 5153.652832 Right Ascen at Week(rad): -1.841363799 Argument of Perigee(rad): -2.870027122 Mean Anom(rad): 2.937588939 Af0(s): 4.220576172e-05 Af1(s/s): 0 week: 366 ******** Week 366 almanac for PRN-5 ******** ID: 5 Health: 0 Eccentricity: 0.005498886108 Time of Applicability(s): 319488 Orbital Inclination(rad): 0.9806835051 Rate of Right Ascen(r/s): -7.566029441e-09 SQRT(A) (m 1/2): 5153.6875 Right Ascen at Week(rad): -2.971174355 Argument of Perigee(rad): 1.42173504 Mean Anom(rad): -2.678452546 Af0(s): -0.0001831428589 Af1(s/s): 0 week: 366 ******** Week 366 almanac for PRN-6 ******** ID: 6 Health: 0 Eccentricity: 0.003785610199 Time of Applicability(s): 319488 Orbital Inclination(rad): 0.9864539094 Rate of Right Ascen(r/s): -7.714607058e-09 SQRT(A) (m 1/2): 5153.619141 Right Ascen at Week(rad): 2.335842281 Argument of Perigee(rad): -0.534441004 Mean Anom(rad): 1.272021361 Af0(s): -0.0004823515625 Af1(s/s): 3.637979e-12 week: 366 ******** Week 366 almanac for PRN-7 ******** ID: 7 Health: 0 Eccentricity: 0.02074670792 Time of Applicability(s): 319488 Orbital Inclination(rad): 0.9509206825 Rate of Right Ascen(r/s): -7.943188008e-09 SQRT(A) (m 1/2): 5153.558594 Right Ascen at Week(rad): -0.8326167589 Argument of Perigee(rad): -1.977873858 Mean Anom(rad): 0.4390368365 Af0(s): -0.0001371687256 Af1(s/s): -3.637979e-12 week: 366 ******** Week 366 almanac for PRN-8 ******** ID: 8 Health: 0 Eccentricity: 0.01159334183 Time of Applicability(s): 319488 Orbital Inclination(rad): 0.9428253386 Rate of Right Ascen(r/s): -8.548927526e-09 SQRT(A) (m 1/2): 5153.643555 Right Ascen at Week(rad): 1.213238364 Argument of Perigee(rad): 0.5375730062 Mean Anom(rad): -3.03897698 Af0(s): 0.0003640246948 Af1(s/s): -7.275958e-12 week: 366 ******** Week 366 almanac for PRN-9 ******** ID: 9 Health: 0 Eccentricity: 0.003354072571 Time of Applicability(s): 319488 Orbital Inclination(rad): 0.9649661941 Rate of Right Ascen(r/s): -8.206056101e-09 SQRT(A) (m 1/2): 5153.689941 Right Ascen at Week(rad): -1.905924316 Argument of Perigee(rad): 2.052213877 Mean Anom(rad): -2.439438041 Af0(s): 0.0005999247559 Af1(s/s): -3.637979e-12 week: 366 ******** Week 366 almanac for PRN-10 ******** ID: 10 Health: 0 Eccentricity: 0.01092481613 Time of Applicability(s): 319488 Orbital Inclination(rad): 0.9936983733 Rate of Right Ascen(r/s): -7.440309919e-09 SQRT(A) (m 1/2): 5153.611328 Right Ascen at Week(rad): -2.913395411 Argument of Perigee(rad): -2.257833591 Mean Anom(rad): -1.004613231 Af0(s): -0.0004657707275 Af1(s/s): 0 week: 366 ******** Week 366 almanac for PRN-11 ******** ID: 11 Health: 0 Eccentricity: 0.002230644226 Time of Applicability(s): 319488 Orbital Inclination(rad): 0.9633543159 Rate of Right Ascen(r/s): -7.954617056e-09 SQRT(A) (m 1/2): 5153.54834 Right Ascen at Week(rad): 2.353664696 Argument of Perigee(rad): -2.328388093 Mean Anom(rad): 2.43629368 Af0(s): -0.0002939329834 Af1(s/s): 1.455192e-11 week: 366 ******** Week 366 almanac for PRN-12 ******** ID: 12 Health: 0 Eccentricity: 0.008903980255 Time of Applicability(s): 319488 Orbital Inclination(rad): 0.9594654349 Rate of Right Ascen(r/s): -7.851755628e-09 SQRT(A) (m 1/2): 5153.706055 Right Ascen at Week(rad): 0.2850897303 Argument of Perigee(rad): 1.573991621 Mean Anom(rad): -0.266340036 Af0(s): -0.0004808442139 Af1(s/s): 0 week: 366 ******** Week 366 almanac for PRN-13 ******** ID: 13 Health: 0 Eccentricity: 0.01012659073 Time of Applicability(s): 319488 Orbital Inclination(rad): 0.9762253734 Rate of Right Ascen(r/s): -8.114623721e-09 SQRT(A) (m 1/2): 5153.61084 Right Ascen at Week(rad): -1.730199252 Argument of Perigee(rad): 0.9941599911 Mean Anom(rad): 3.018174238 Af0(s): 0.0005366161133 Af1(s/s): 0 week: 366 ******** Week 366 almanac for PRN-14 ******** ID: 14 Health: 0 Eccentricity: 0.00696516037 Time of Applicability(s): 319488 Orbital Inclination(rad): 0.9428073623 Rate of Right Ascen(r/s): -7.977475151e-09 SQRT(A) (m 1/2): 5153.611328 Right Ascen at Week(rad): 0.2297836559 Argument of Perigee(rad): -2.728420023 Mean Anom(rad): -0.3975452028 Af0(s): 0.0005871122925 Af1(s/s): 0 week: 366 ******** Week 366 almanac for PRN-15 ******** ID: 15 Health: 0 Eccentricity: 0.01666498184 Time of Applicability(s): 319488 Orbital Inclination(rad): 0.9430110941 Rate of Right Ascen(r/s): -8.423208003e-09 SQRT(A) (m 1/2): 5153.648926 Right Ascen at Week(rad): -2.051063766 Argument of Perigee(rad): 1.509877891 Mean Anom(rad): 2.249759968 Af0(s): 0.0003188042358 Af1(s/s): 3.637979e-12 week: 366 ******** Week 366 almanac for PRN-16 ******** ID: 16 Health: 0 Eccentricity: 0.01499986649 Time of Applicability(s): 319488 Orbital Inclination(rad): 0.958566618 Rate of Right Ascen(r/s): -7.851755628e-09 SQRT(A) (m 1/2): 5153.625 Right Ascen at Week(rad): 0.3019833679 Argument of Perigee(rad): 0.9331909959 Mean Anom(rad): -1.99246203 Af0(s): 0.0001936942993 Af1(s/s): 7.275958e-12 week: 366 ******** Week 366 almanac for PRN-17 ******** ID: 17 Health: 0 Eccentricity: 0.01259613037 Time of Applicability(s): 319488 Orbital Inclination(rad): 0.9584108231 Rate of Right Ascen(r/s): -8.411778956e-09 SQRT(A) (m 1/2): 5153.557617 Right Ascen at Week(rad): 1.318664714 Argument of Perigee(rad): -1.11476174 Mean Anom(rad): -3.07508882 Af0(s): -8.968724365e-05 Af1(s/s): -7.275958e-12 week: 366 ******** Week 366 almanac for PRN-18 ******** ID: 18 Health: 0 Eccentricity: 0.005862236023 Time of Applicability(s): 319488 Orbital Inclination(rad): 0.9714196992 Rate of Right Ascen(r/s): -7.851755628e-09 SQRT(A) (m 1/2): 5153.585449 Right Ascen at Week(rad): 2.330185353 Argument of Perigee(rad): -2.870852161 Mean Anom(rad): 1.223873614 Af0(s): -0.0002969476807 Af1(s/s): 1.091394e-11 week: 366 ******** Week 366 almanac for PRN-19 ******** ID: 19 Health: 0 Eccentricity: 0.01133871078 Time of Applicability(s): 319488 Orbital Inclination(rad): 0.957553951 Rate of Right Ascen(r/s): -8.400349908e-09 SQRT(A) (m 1/2): 5153.670898 Right Ascen at Week(rad): 1.362541583 Argument of Perigee(rad): 2.952902532 Mean Anom(rad): -1.312218699 Af0(s): 0.0005509359253 Af1(s/s): 0 week: 366 ******** Week 366 almanac for PRN-20 ******** ID: 20 Health: 0 Eccentricity: 0.002207279205 Time of Applicability(s): 319488 Orbital Inclination(rad): 0.9603582596 Rate of Right Ascen(r/s): -8.274630386e-09 SQRT(A) (m 1/2): 5153.697266 Right Ascen at Week(rad): -1.900533662 Argument of Perigee(rad): -1.91653822 Mean Anom(rad): -0.3527227036 Af0(s): 8.667254639e-05 Af1(s/s): 1.818989e-11 week: 366 ******** Week 366 almanac for PRN-21 ******** ID: 21 Health: 0 Eccentricity: 0.0008373260498 Time of Applicability(s): 319488 Orbital Inclination(rad): 0.963576024 Rate of Right Ascen(r/s): -7.748894201e-09 SQRT(A) (m 1/2): 5153.743164 Right Ascen at Week(rad): -2.905965191 Argument of Perigee(rad): -0.1830650276 Mean Anom(rad): -0.6952490789 Af0(s): 0.0003278483276 Af1(s/s): 0 week: 366 ******** Week 366 almanac for PRN-22 ******** ID: 22 Health: 0 Eccentricity: 0.01200771332 Time of Applicability(s): 319488 Orbital Inclination(rad): 0.9580213358 Rate of Right Ascen(r/s): -7.851755628e-09 SQRT(A) (m 1/2): 5153.578125 Right Ascen at Week(rad): 0.3053445685 Argument of Perigee(rad): -0.9933308325 Mean Anom(rad): -2.427193159 Af0(s): -1.431981201e-05 Af1(s/s): 7.275958e-12 week: 366 ******** Week 366 almanac for PRN-23 ******** ID: 23 Health: 0 Eccentricity: 0.006107807159 Time of Applicability(s): 319488 Orbital Inclination(rad): 0.9886769831 Rate of Right Ascen(r/s): -7.497455156e-09 SQRT(A) (m 1/2): 5153.670898 Right Ascen at Week(rad): -2.945673423 Argument of Perigee(rad): -2.741881678 Mean Anom(rad): 0.06252469741 Af0(s): 0.000502700769 Af1(s/s): 3.637979e-12 week: 366 ******** Week 366 almanac for PRN-24 ******** ID: 24 Health: 0 Eccentricity: 0.01799678802 Time of Applicability(s): 319488 Orbital Inclination(rad): 0.9348678133 Rate of Right Ascen(r/s): -8.240343243e-09 SQRT(A) (m 1/2): 5153.585449 Right Ascen at Week(rad): -0.9419192567 Argument of Perigee(rad): 1.141663704 Mean Anom(rad): 1.420558713 Af0(s): -2.713227539e-05 Af1(s/s): 1.818989e-11 week: 366 ******** Week 366 almanac for PRN-25 ******** ID: 25 Health: 0 Eccentricity: 0.01287889481 Time of Applicability(s): 319488 Orbital Inclination(rad): 0.9478527209 Rate of Right Ascen(r/s): -7.931758961e-09 SQRT(A) (m 1/2): 5153.661621 Right Ascen at Week(rad): 0.1908206937 Argument of Perigee(rad): 1.160595409 Mean Anom(rad): -0.3752373172 Af0(s): 0.0003399071167 Af1(s/s): -3.637979e-12 week: 366 ******** Week 366 almanac for PRN-26 ******** ID: 26 Health: 0 Eccentricity: 0.01102352142 Time of Applicability(s): 319488 Orbital Inclination(rad): 0.92861804 Rate of Right Ascen(r/s): -8.057478483e-09 SQRT(A) (m 1/2): 5153.692383 Right Ascen at Week(rad): 0.1155092028 Argument of Perigee(rad): 0.7129643848 Mean Anom(rad): -1.199194725 Af0(s): -0.0002796131714 Af1(s/s): -3.637979e-12 week: 366 ******** Week 366 almanac for PRN-27 ******** ID: 27 Health: 0 Eccentricity: 0.01437282562 Time of Applicability(s): 319488 Orbital Inclination(rad): 0.9518973969 Rate of Right Ascen(r/s): -8.446066098e-09 SQRT(A) (m 1/2): 5153.608887 Right Ascen at Week(rad): 1.245660935 Argument of Perigee(rad): 0.8939962138 Mean Anom(rad): -2.928974529 Af0(s): -8.516519775e-05 Af1(s/s): -1.818989e-11 week: 366 ******** Week 366 almanac for PRN-28 ******** ID: 28 Health: 0 Eccentricity: 0.0004005432129 Time of Applicability(s): 319488 Orbital Inclination(rad): 0.9618203351 Rate of Right Ascen(r/s): -7.886042771e-09 SQRT(A) (m 1/2): 5153.518066 Right Ascen at Week(rad): -0.8578750109 Argument of Perigee(rad): -0.3753653986 Mean Anom(rad): 1.136156578 Af0(s): -0.0004378847778 Af1(s/s): 1.091394e-11 week: 366 ******** Week 366 almanac for PRN-29 ******** ID: 29 Health: 0 Eccentricity: 0.00350522995 Time of Applicability(s): 319488 Orbital Inclination(rad): 0.961071321 Rate of Right Ascen(r/s): -8.377491813e-09 SQRT(A) (m 1/2): 5153.676758 Right Ascen at Week(rad): 1.3355209 Argument of Perigee(rad): 2.759853147 Mean Anom(rad): -3.096461562 Af0(s): -0.0002683080566 Af1(s/s): 7.275958e-12 week: 366 ******** Week 366 almanac for PRN-30 ******** ID: 30 Health: 0 Eccentricity: 0.008203983307 Time of Applicability(s): 319488 Orbital Inclination(rad): 0.936186078 Rate of Right Ascen(r/s): -8.114623721e-09 SQRT(A) (m 1/2): 5153.680176 Right Ascen at Week(rad): -0.8422539482 Argument of Perigee(rad): -2.289759191 Mean Anom(rad): 0.2151104705 Af0(s): 0.0001492275146 Af1(s/s): 1.455192e-11 week: 366 ******** Week 366 almanac for PRN-31 ******** ID: 31 Health: 0 Eccentricity: 0.01081562042 Time of Applicability(s): 319488 Orbital Inclination(rad): 0.9546837291 Rate of Right Ascen(r/s): -7.943188008e-09 SQRT(A) (m 1/2): 5153.537598 Right Ascen at Week(rad): -0.8082078888 Argument of Perigee(rad): 0.9443906286 Mean Anom(rad): -0.6416571231 Af0(s): -0.0001228489136 Af1(s/s): 3.637979e-12 week: 366 ******** Week 366 almanac for PRN-32 ******** ID: 32 Health: 0 Eccentricity: 0.009391784668 Time of Applicability(s): 319488 Orbital Inclination(rad): 0.9679742346 Rate of Right Ascen(r/s): -8.148910863e-09 SQRT(A) (m 1/2): 5153.687988 Right Ascen at Week(rad): -1.88877152 Argument of Perigee(rad): -1.981752252 Mean Anom(rad): -2.38058913 Af0(s): 3.014697266e-06 Af1(s/s): 1.818989e-11 week: 366